Kezdőlap
METAR-TAF:

METAR-TAF

Repülőterek :

Clarion Municipal Airport

Clarion, Iowa, Amerikai Egyesült Államok

földrajzi szélesség: 42-45N, földrajzi hosszúság: 093-46W, magasság: 354 m

Jelenlegi meteorológiai megfigyelések

A jelentés 26 perccel ezelõtt készült, 15:15 UTC
Délkeleti szél 11 kt
Hőmérséklet 26°C
Páratartalom 58%
Légköri nyomás 1020 hPa
Látótávolság: 16.1 km
Derült ég

METAR: KCAV 291515Z AUTO 14011KT 10SM CLR 26/17 A3012 RMK A01

Idő: 10:41 (15:41 UTC)


TAF: hiányzik

Meteorológiai megfigyelések és előrejelzések több, mint 4000 repülőtéren (METAR és TAF jelentéseket).

A térképen piros és sárga pontok jelzik az elérhető meteorológiai állomásokat.

Mozgassa az egeret a pont fölött, hogy megjelenjen az állomás neve.

Azután kattintson az időjárási megfigyelések és előrejelzések megtekintéséhez.

A térkép megváltoztatása: kattintson a fekete keresztel jelölt zöld gombra ráközelítéshez, a vonallal jelölt zöld gombra távolításhoz, vagy a zöld nyilakra a szomszédos térképek eléréséhez.


METAR-TAF: